Wind_Speed
40 39 37 39 39 38 36 37 38 39 41 43 44 43 41 41 41 42 44 45 45 45 45 46 47 48 48 49 49 50 50 51 52 52 51 51 50 51 51 51 52 52 53 55 57 57 58 57 57 56 56 57 57 58 59 61 63 64 65 67 69 70 71 73 76 79 81 82 81 79 78 78 77 76 75 73 70 68 66 64 63 62 60 56 53
37 37 37 37 37 36 36 37 38 40 41 41 41 42 43 44 44 44 44 44 43 43 43 44 46 47 48 48 48 48 49 50 50 50 49 49 50 50 51 52 53 54 56 58 58 58 57 56 56 56 56 56 57 58 60 62 63 64 66 68 70 71 74 77 80 82 84 85 84 82 81 80 78 75 74 73 71 68 67 65 64 62 59 54 50
36 37 39 37 36 35 36 38 39 41 41 40 40 43 46 47 46 45 44 44 45 45 46 47 48 48 47 47 47 47 47 47 48 48 49 49 50 51 52 54 55 57 58 58 57 56 56 55 55 55 56 56 57 59 61 62 63 66 68 69 71 74 77 79 82 84 86 85 84 83 83 81 77 75 74 73 71 69 67 65 63 62 58 52 47
36 38 39 38 37 37 38 39 39 40 40 40 41 42 45 46 46 45 46 46 47 48 49 49 48 47 47 47 47 47 48 48 48 49 49 50 51 53 55 56 57 58 58 57 55 55 55 55 55 56 56 57 58 60 61 63 65 67 68 70 73 77 79 81 83 86 86 85 84 84 83 80 77 75 74 73 72 72 70 66 64 62 58 52 47
37 39 39 39 39 39 39 38 38 39 41 42 43 45 46 47 49 50 51 51 51 50 50 49 49 49 49 49 49 49 49 49 49 50 51 52 54 56 57 57 57 57 56 55 54 54 54 55 55 56 57 58 59 60 62 65 67 68 70 73 77 79 81 83 85 87 86 85 85 84 83 80 77 75 73 72 72 72 71 68 65 62 57 52 48
37 39 41 41 41 41 40 39 39 41 43 44 46 47 49 51 53 54 54 53 52 52 51 52 52 52 51 50 50 50 50 51 51 52 53 55 57 57 56 57 56 55 54 54 54 54 54 55 55 56 58 59 60 62 64 67 68 70 73 76 79 81 82 85 87 87 85 85 85 85 83 80 77 75 73 72 72 70 67 66 65 64 60 53 48
35 38 40 43 43 42 41 41 42 44 46 48 49 49 50 51 52 53 53 52 52 52 53 53 53 51 50 50 50 50 51 52 53 54 55 56 55 55 55 56 55 54 54 54 54 54 54 55 56 57 58 60 62 64 66 68 70 73 76 78 80 82 83 86 87 86 85 85 85 84 82 79 76 74 72 72 72 70 66 62 61 62 60 54 48
34 36 38 41 44 45 44 44 45 46 48 50 51 52 52 52 53 53 53 53 53 52 52 51 50 49 49 49 50 51 52 53 54 55 55 54 53 53 55 55 55 54 54 54 54 54 54 54 56 58 60 62 64 66 68 69 72 75 78 80 81 82 84 86 85 84 85 85 85 83 81 78 76 73 72 72 70 68 64 59 57 58 58 55 50
33 35 37 39 42 44 46 48 49 50 51 52 54 55 56 56 56 54 53 52 51 50 49 48 48 48 49 49 51 52 53 54 54 53 52 51 52 54 55 55 55 55 55 55 54 53 53 55 57 59 62 64 66 68 70 72 75 78 79 80 80 82 84 84 82 82 83 83 83 82 79 77 75 73 71 69 66 64 62 58 56 56 56 56 53
32 34 36 38 39 41 44 47 49 50 52 53 55 56 56 55 54 53 51 50 48 48 48 48 49 49 50 51 52 53 54 53 52 50 50 52 54 55 55 56 56 56 56 55 53 52 53 56 59 62 65 68 69 70 72 74 77 79 79 79 80 82 83 81 80 81 81 81 80 79 77 76 74 72 71 68 65 63 61 58 55 53 53 53 52
32 33 35 37 38 39 41 43 44 45 47 48 49 51 51 51 50 49 48 47 47 48 48 49 50 51 52 53 53 53 52 51 50 49 51 54 55 55 56 56 57 56 55 53 54 55 57 60 63 66 69 70 71 71 73 77 79 79 78 79 80 81 80 78 78 78 78 77 77 76 75 75 74 72 71 69 66 63 60 57 54 51 49 48 48
31 33 34 36 38 39 40 41 41 42 43 45 46 46 47 47 47 46 46 46 47 48 49 50 50 51 51 51 51 51 50 49 49 50 52 54 55 55 57 58 57 55 55 56 59 61 63 65 68 70 72 72 71 72 75 78 78 77 77 79 80 79 77 76 75 75 74 74 73 73 73 74 74 73 71 68 66 63 60 57 55 51 47 43 42
30 32 34 35 37 38 38 39 40 41 42 43 44 44 44 45 45 45 46 46 46 47 48 48 48 49 49 50 50 49 49 49 50 51 52 54 55 56 57 57 56 57 59 61 64 65 67 69 71 72 73 72 72 74 77 78 76 76 77 78 77 75 74 74 73 72 71 71 70 70 71 72 72 72 71 69 66 63 60 58 56 53 48 42 38
30 31 33 34 35 36 36 37 38 39 40 41 42 43 43 43 43 44 44 44 45 45 45 45 46 46 47 47 47 47 47 48 49 51 52 54 54 54 54 54 56 59 62 64 65 67 69 72 73 73 72 72 74 77 77 75 75 76 77 76 74 72 72 71 70 69 68 68 68 69 69 70 70 70 71 70 67 63 60 58 56 55 51 45 39
31 31 32 32 33 33 33 34 35 37 38 40 40 41 41 41 41 42 42 43 43 43 43 43 43 43 44 44 45 46 47 49 50 51 51 50 50 52 53 54 57 60 63 65 67 69 72 73 72 71 72 75 77 76 75 75 76 76 75 73 71 71 70 69 67 66 66 66 67 67 68 68 68 68 69 70 68 65 61 58 56 56 55 52 46
32 32 32 32 31 31 31 32 33 35 37 38 38 39 39 39 40 41 41 42 41 41 40 39 38 40 42 45 47 48 49 50 50 50 47 46 49 54 56 57 59 61 63 66 68 70 72 72 71 72 75 76 76 75 75 76 76 74 72 70 70 69 67 65 64 63 64 64 65 67 67 68 67 66 66 67 68 66 63 60 57 56 56 55 52
32 31 31 31 30 30 31 31 32 33 34 35 35 36 37 38 39 39 39 39 38 37 36 35 37 41 44 47 49 49 48 47 47 47 47 51 55 58 58 58 60 62 65 67 70 71 71 71 73 74 75 75 75 76 76 75 74 71 70 69 69 67 65 63 62 62 63 64 65 67 67 68 67 66 64 64 65 66 65 62 58 55 53 53 53
28 28 28 29 30 30 30 30 30 31 32 33 34 35 35 36 36 35 35 35 35 35 35 37 40 43 46 48 50 50 49 49 49 51 55 58 58 58 58 60 62 65 68 69 70 71 71 72 73 74 74 74 75 75 75 73 71 69 69 68 67 65 62 61 61 62 63 64 65 67 67 67 67 66 64 62 62 63 64 64 61 57 52 50 50
27 26 27 29 30 29 28 28 29 30 31 33 33 33 33 33 33 33 34 35 36 37 38 41 44 46 48 50 51 52 51 52 53 54 56 58 58 59 61 63 65 67 68 69 69 70 70 71 72 72 73 74 74 74 72 70 68 68 67 66 63 61 60 60 60 61 62 63 64 66 66 66 66 65 64 61 60 60 62 62 63 61 56 51 48
28 26 27 30 31 29 28 29 30 31 32 33 34 33 32 32 32 34 37 39 41 42 43 45 47 48 49 50 50 49 50 51 53 54 56 58 60 61 63 64 65 65 66 66 68 68 69 70 71 72 74 74 73 71 69 67 67 67 65 62 59 58 58 58 58 59 60 62 63 64 65 65 64 64 63 61 59 59 60 61 61 60 58 54 50
31 28 31 35 35 33 33 33 33 35 36 36 37 36 35 34 34 37 41 43 44 45 45 47 48 49 49 50 50 52 54 55 56 57 59 61 62 63 63 63 63 64 65 66 67 68 69 70 71 73 73 72 69 67 66 66 66 65 61 58 56 56 57 57 57 57 59 60 62 63 64 64 64 64 63 61 60 59 59 59 59 59 57 54 51
35 34 36 39 38 37 38 38 38 39 40 41 42 42 39 37 36 39 44 46 46 46 47 48 49 50 51 52 53 55 56 56 57 58 60 62 64 64 65 65 65 65 66 67 68 68 69 70 72 72 70 67 65 64 65 65 64 61 57 55 55 56 56 56 56 57 59 60 61 62 63 63 63 63 63 62 61 60 59 59 58 58 57 53 50
37 37 38 39 39 40 41 42 43 43 43 44 46 46 44 42 40 41 44 45 46 46 47 48 49 50 51 52 52 52 53 54 55 56 58 60 62 63 64 65 65 65 66 66 67 68 68 70 70 69 66 64 63 63 64 63 60 57 54 54 55 57 57 56 56 57 59 60 60 61 61 62 62 62 62 62 62 61 60 59 58 58 57 55 51
35 35 36 38 39 40 40 42 44 45 45 45 47 49 48 46 44 44 45 46 47 48 49 50 52 53 53 52 51 51 52 53 54 54 56 57 58 60 61 62 62 63 64 66 66 67 68 68 67 65 63 63 63 63 62 60 56 54 53 55 57 58 57 57 56 57 58 59 60 61 61 61 61 61 61 61 62 62 61 61 60 59 58 56 53
33 35 37 38 40 41 42 42 43 45 47 48 49 50 50 48 48 50 51 51 52 53 54 54 54 54 53 52 52 53 54 55 55 55 55 56 57 58 59 60 61 63 64 65 66 66 67 66 64 62 62 62 62 62 60 56 53 53 54 55 56 56 56 55 55 56 58 59 60 61 62 62 61 60 60 60 62 63 63 63 63 62 61 59 56
37 38 39 41 42 44 45 46 46 46 48 50 51 52 52 52 52 53 54 55 55 55 55 55 54 54 54 54 55 57 57 57 57 57 57 57 58 58 60 61 62 63 64 65 65 65 65 63 61 61 61 60 61 61 57 52 51 52 53 53 53 54 54 54 55 56 58 59 61 62 63 63 62 61 61 61 62 63 64 64 64 64 63 62 60
41 41 41 43 44 46 47 49 50 50 50 52 52 53 53 53 53 53 54 54 55 55 56 56 56 56 57 58 59 59 58 58 58 58 58 58 58 59 60 61 62 63 64 64 64 64 63 60 60 59 59 60 60 58 53 50 50 52 52 52 53 54 54 55 56 57 59 60 62 63 64 64 64 63 62 63 63 63 64 64 65 65 64 64 62
43 43 44 45 46 47 49 50 51 52 53 54 55 55 55 54 54 55 56 57 58 58 59 59 59 59 60 61 61 59 58 58 58 58 58 58 59 60 61 62 62 63 63 62 62 62 60 59 58 58 58 59 58 54 50 49 51 52 54 54 55 55 56 57 58 59 61 62 64 65 65 65 66 65 65 65 66 66 65 65 65 65 65 64 63
44 45 45 46 46 48 49 50 51 52 53 55 57 58 58 58 58 58 60 61 62 62 62 61 61 61 61 61 60 59 59 59 59 59 59 59 59 60 61 62 62 62 62 62 62 61 59 58 58 58 58 59 56 52 50 51 53 55 56 56 56 57 59 60 61 62 63 64 65 66 66 67 68 67 67 68 69 69 68 67 67 67 66 65 63
46 46 46 47 48 48 49 50 51 52 53 54 56 57 59 60 61 62 63 64 63 63 62 62 62 62 62 61 60 60 60 60 60 59 59 59 60 61 61 62 61 61 61 61 61 60 59 59 59 59 59 58 55 52 53 56 58 58 59 59 59 60 61 62 64 65 65 66 67 67 67 68 69 69 69 70 71 72 72 71 70 69 68 67 64
47 47 47 48 48 48 49 50 51 52 52 53 54 55 56 57 59 61 63 63 63 63 63 63 63 63 62 61 61 61 60 60 60 60 59 59 60 61 61 61 60 59 60 61 60 59 59 59 59 59 60 58 55 54 57 60 61 61 61 61 62 63 64 66 67 67 67 68 68 68 69 69 69 70 71 71 72 73 74 74 73 72 71 70 67
49 49 49 49 48 48 49 50 51 51 52 52 52 53 53 54 56 58 60 61 62 62 62 63 63 62 62 61 61 61 60 60 60 59 59 60 60 61 60 59 58 58 59 59 59 58 59 59 60 60 61 59 57 57 60 63 64 64 64 65 66 66 67 69 69 69 69 69 69 70 70 71 71 71 72 73 74 75 76 76 76 75 74 73 70
51 51 51 50 49 48 49 50 50 51 52 52 52 52 52 53 53 54 56 58 59 60 60 61 62 61 61 61 61 61 61 60 60 60 60 60 60 60 59 57 57 57 58 58 58 59 60 60 60 61 62 62 61 61 64 65 66 67 68 69 69 70 70 71 71 71 71 70 70 71 72 72 72 73 74 74 75 76 78 77 77 77 77 76 73
52 53 53 52 50 49 50 51 51 52 53 54 53 53 53 53 53 52 53 55 57 58 59 60 60 61 61 61 61 61 60 60 60 60 59 59 58 58 57 57 57 57 57 58 60 61 61 60 60 62 64 64 65 66 67 68 69 70 71 72 73 73 74 74 73 73 73 72 72 72 73 74 74 74 75 76 76 77 78 78 77 77 78 77 75
54 54 53 52 51 50 50 51 52 53 54 55 54 54 53 53 53 52 52 53 55 56 57 58 60 61 62 62 62 61 60 60 59 59 58 57 57 57 57 57 57 57 59 61 62 61 60 60 61 63 64 65 68 69 69 70 72 72 73 74 75 76 76 76 75 75 75 75 75 75 75 74 74 75 76 77 78 79 80 79 79 78 78 77 75
56 55 54 53 52 51 51 51 53 53 54 55 55 55 54 53 53 53 53 53 54 55 57 58 59 60 62 63 62 61 60 59 58 57 58 57 56 56 57 57 58 60 62 63 62 60 59 60 61 62 63 66 68 70 70 72 73 74 75 76 78 78 78 77 77 77 77 77 78 78 77 76 76 76 77 78 79 80 80 80 79 79 78 76 74
57 55 53 52 51 51 51 52 53 54 54 55 56 56 54 53 53 54 54 53 54 55 56 57 58 60 63 64 63 61 59 57 56 57 58 57 56 56 57 59 61 63 64 64 63 61 61 62 63 63 65 67 69 70 72 74 75 77 78 79 79 79 78 78 79 79 79 79 81 81 80 79 78 78 79 80 81 82 82 81 80 79 78 75 71
57 54 52 51 51 51 51 52 53 53 54 55 55 55 54 53 53 54 54 54 54 56 57 58 59 61 62 63 63 61 59 56 55 56 58 57 56 56 57 60 63 65 65 65 64 64 65 66 67 67 69 71 71 73 76 77 78 79 80 80 79 79 79 79 81 81 81 81 83 83 82 81 80 80 81 82 83 84 83 82 80 79 77 74 68
55 52 51 51 51 52 52 52 53 53 54 54 54 54 53 53 53 53 54 54 55 56 58 59 60 61 61 60 60 60 59 58 56 56 58 58 57 57 58 61 65 67 67 66 65 66 68 70 71 72 74 75 76 77 79 79 80 81 81 81 80 80 80 81 82 82 82 83 84 84 83 82 82 82 83 84 85 85 84 83 81 79 76 71 65
54 51 50 51 52 52 53 53 53 54 54 53 53 53 53 53 52 53 54 54 55 56 57 58 60 60 60 59 58 58 59 60 59 59 60 60 59 59 60 63 66 68 67 65 65 67 70 73 74 75 77 78 79 80 81 81 81 82 82 82 81 82 82 83 83 83 84 85 85 84 83 83 83 84 86 87 87 87 85 84 82 79 75 68 61
53 51 51 51 52 53 54 54 54 53 53 52 52 53 53 53 53 53 54 54 55 55 56 57 58 59 60 59 59 59 61 63 64 64 64 63 62 62 63 65 67 67 66 65 65 67 70 73 76 78 80 81 81 83 84 84 83 83 83 83 83 84 84 84 84 85 85 86 86 85 84 84 85 86 88 89 89 88 87 84 82 78 73 65 57
52 52 52 53 53 54 54 54 54 53 53 52 52 52 52 53 53 54 54 54 55 55 55 56 57 58 59 59 60 61 64 66 67 67 67 65 63 64 65 67 67 66 64 63 64 67 70 73 76 79 82 83 84 86 87 85 84 84 84 84 85 86 86 85 85 86 87 88 87 86 86 86 87 89 90 91 90 89 87 85 82 77 70 62 57
53 53 54 54 55 55 55 55 54 54 53 53 52 52 53 54 54 55 55 56 56 56 57 57 58 59 59 60 61 62 63 65 67 67 67 66 65 66 67 68 68 67 65 64 65 68 71 74 77 79 82 83 86 88 88 86 84 85 86 86 87 87 87 86 87 88 89 89 89 88 87 88 90 91 92 92 91 89 87 85 80 74 67 61 57
55 55 55 55 55 56 56 56 56 56 55 55 55 55 55 56 56 57 58 58 59 59 59 59 59 59 60 61 62 63 64 65 66 67 68 68 68 69 69 70 70 70 68 68 69 71 73 75 77 79 81 84 87 89 88 86 86 87 87 88 88 88 88 88 89 90 90 90 89 89 89 91 92 93 93 92 91 89 86 82 76 70 65 61 59
57 56 56 56 56 56 56 56 57 57 58 58 58 58 58 58 59 59 60 61 61 61 61 61 61 61 62 62 63 64 65 66 67 68 69 70 71 71 71 72 72 72 71 71 72 74 75 76 78 80 82 84 87 88 87 87 87 88 89 89 89 89 89 90 91 91 91 90 90 91 92 94 95 94 94 92 90 87 83 77 71 66 63 61 60
57 57 57 56 56 56 56 57 57 58 58 59 59 59 60 60 60 61 61 62 62 63 63 63 63 63 64 65 66 66 67 68 69 70 71 71 72 72 72 72 73 72 72 73 74 75 76 78 79 81 82 84 86 86 87 87 88 89 90 91 91 91 91 91 92 92 91 90 91 93 95 96 96 95 94 92 89 85 79 73 69 66 64 62 60
56 56 56 56 56 56 57 57 58 58 58 59 59 60 60 61 61 62 62 62 62 62 62 62 62 63 64 65 65 66 67 67 68 69 69 69 69 69 70 70 71 72 73 74 76 77 78 79 80 81 82 84 85 86 87 88 89 89 91 92 92 92 92 92 92 91 91 91 93 95 96 96 96 95 93 91 86 81 76 72 69 67 65 63 60
55 55 55 55 55 56 56 57 57 58 59 59 60 60 61 61 61 60 60 59 59 58 58 58 59 59 60 61 61 62 63 63 64 65 65 66 66 67 68 69 71 73 74 76 77 78 79 79 80 81 82 84 85 86 87 88 89 90 91 92 92 91 91 91 91 91 92 94 95 96 96 96 95 94 91 86 82 78 75 73 71 69 66 63 60
52 53 53 53 54 54 55 56 57 57 58 58 58 58 58 57 57 56 56 56 56 56 56 57 57 58 59 59 60 61 62 63 64 65 65 66 67 68 70 71 73 74 76 77 78 79 79 80 82 83 84 85 85 86 87 88 89 90 90 90 90 90 90 90 91 92 94 95 96 96 96 95 93 90 86 82 79 77 75 73 71 69 66 64 61
51 51 52 52 52 53 53 54 54 54 54 54 54 55 55 55 56 56 57 57 58 59 59 60 60 61 62 63 63 64 65 66 67 67 68 69 70 71 72 74 74 75 76 77 77 78 79 80 81 82 83 84 85 86 87 87 88 88 88 88 88 88 89 90 92 94 96 96 97 96 95 92 89 85 82 80 78 77 75 73 71 69 67 65 64
49 49 50 50 50 50 50 50 51 51 52 53 54 55 56 57 58 59 60 60 61 61 62 62 63 63 64 65 65 66 67 68 68 69 70 71 72 73 74 74 75 75 76 77 77 78 79 79 80 80 81 81 82 83 84 84 85 85 85 86 87 88 90 92 94 95 96 96 96 94 91 88 85 82 80 79 78 77 75 72 70 69 68 67 66
Wind_Direction
234 234 233 232 233 234 235 235 235 235 237 240 244 249 254 256 258 260 260 261 264 266 269 271 273 275 276 276 277 277 278 278 280 282 284 284 284 283 283 284 285 287 289 291 293 296 297 298 300 301 302 304 305 305 305 306 308 310 312 313 314 315 316 319 322 323 324 324 324 324 325 326 326 325 324 322 320 319 318 317 315 312 308 306 304
232 230 228 229 231 233 234 234 234 235 236 240 245 250 253 254 255 256 257 260 264 267 269 272 274 274 274 275 276 276 278 279 281 283 283 282 282 282 283 284 286 289 291 293 295 297 298 300 301 302 304 305 305 305 306 308 310 312 313 314 315 318 320 323 324 324 325 325 326 326 327 327 327 327 326 324 323 321 320 319 318 314 311 310 309
230 226 225 227 230 232 233 233 233 234 236 241 246 248 249 249 251 253 257 261 264 267 270 273 274 274 275 276 277 279 280 281 281 281 280 281 281 283 284 286 289 290 292 294 296 298 299 300 301 303 305 306 306 306 308 310 312 313 314 316 319 321 323 323 324 325 325 326 326 327 327 328 328 328 328 326 325 323 322 322 320 316 314 314 312
228 225 224 226 228 230 231 234 235 236 238 243 245 245 246 246 248 251 256 261 264 267 269 269 271 273 276 278 279 280 280 280 280 279 280 282 283 285 287 288 290 291 293 295 297 299 299 301 303 305 306 306 307 309 311 313 314 314 317 320 322 322 323 323 324 325 325 326 327 327 328 329 330 330 329 328 327 326 325 324 322 318 317 318 315
228 225 224 225 227 230 233 236 238 238 240 243 244 244 245 246 248 252 256 260 263 265 266 267 270 274 277 278 279 279 279 279 279 280 282 284 285 286 288 289 290 292 294 296 298 299 300 302 305 306 306 307 309 312 314 315 315 318 321 323 322 322 323 324 324 325 326 327 327 328 329 330 331 331 331 330 330 329 327 326 322 319 319 321 319
230 228 226 226 227 230 234 238 238 237 239 241 242 243 245 247 250 253 257 261 264 265 266 269 272 274 276 276 277 277 278 279 280 282 284 285 287 288 289 289 291 293 295 297 298 299 302 304 306 306 307 310 313 315 316 316 319 322 323 322 321 322 323 324 325 326 326 327 328 329 330 331 331 332 332 332 331 330 329 327 324 322 323 325 323
232 230 228 228 227 228 231 235 235 235 236 238 241 243 245 248 252 256 260 263 265 267 269 270 272 274 274 275 275 276 277 279 281 283 285 287 288 289 288 289 292 294 296 297 298 301 304 305 306 308 311 314 316 317 317 320 322 323 322 321 322 322 323 324 325 326 327 328 328 329 330 330 332 333 334 334 333 331 331 330 327 324 324 325 325
237 235 232 231 230 229 230 232 234 234 236 239 242 246 250 254 259 263 265 266 267 268 269 271 272 273 273 274 275 276 278 281 283 285 287 288 288 286 287 290 293 294 296 298 300 302 305 306 309 312 315 317 317 318 320 323 323 322 321 321 321 322 323 324 325 326 327 328 328 329 329 331 332 334 335 335 334 332 331 330 328 326 325 326 327
242 240 238 236 234 233 232 233 236 238 241 244 247 252 256 260 263 265 266 267 267 268 270 271 271 272 272 273 275 277 279 281 284 286 287 286 284 285 288 291 293 295 297 298 301 304 307 310 313 316 318 318 319 321 322 323 322 321 320 320 321 322 323 325 325 326 327 327 328 328 329 331 333 334 336 335 335 334 333 332 331 330 328 328 328
244 242 241 240 239 239 238 239 240 243 246 248 251 254 257 260 261 263 264 265 266 267 268 269 270 271 272 273 276 278 280 282 284 285 284 283 283 286 289 292 294 296 296 298 302 307 311 314 317 319 319 320 321 322 322 321 320 319 319 319 321 322 323 325 326 326 326 327 327 328 329 331 333 334 336 336 337 337 336 334 333 332 331 329 328
246 245 244 244 243 243 243 244 245 247 249 250 252 254 256 258 259 261 262 263 264 265 267 268 270 271 273 275 277 278 280 282 282 282 281 282 286 289 291 292 294 295 298 303 309 313 315 317 319 319 320 321 322 321 319 318 318 318 318 320 321 322 323 324 325 325 325 326 327 328 330 332 333 335 336 338 339 339 338 335 334 334 333 330 328
248 247 247 246 246 246 246 247 247 248 250 252 253 255 257 258 259 261 262 264 265 266 268 269 271 273 275 276 277 279 280 281 281 281 283 286 290 291 292 294 297 301 306 311 313 314 316 317 318 319 320 321 320 318 316 316 316 317 318 320 321 322 323 323 324 324 324 325 327 329 331 332 333 335 337 339 340 341 340 337 334 334 334 332 328
250 250 249 249 249 250 250 250 250 251 252 253 255 256 258 259 261 262 264 265 267 268 270 271 273 275 276 277 279 280 281 281 282 284 287 290 291 292 295 300 304 306 309 310 310 311 313 315 317 318 319 318 316 315 314 315 316 317 318 319 320 321 322 322 322 323 324 326 328 330 331 333 334 335 337 339 341 342 342 339 336 335 335 333 331
252 253 253 253 254 255 255 255 255 255 255 255 256 257 259 260 262 264 265 267 268 270 271 273 275 277 278 279 280 281 282 284 286 288 290 291 293 296 301 304 304 304 305 306 307 309 311 314 316 317 316 314 313 313 313 314 315 316 318 319 320 320 321 321 321 322 324 326 329 330 332 333 335 336 337 339 341 342 344 342 339 336 335 336 336
254 254 254 255 257 259 259 259 258 257 257 257 257 258 260 261 263 264 266 267 269 271 273 276 278 279 280 281 282 283 284 286 287 290 293 295 297 298 299 299 299 300 302 304 305 307 310 313 314 313 312 311 311 312 312 313 315 316 317 318 319 320 320 320 321 323 325 327 329 330 332 334 336 338 338 339 340 342 344 344 342 340 338 339 340
255 256 257 259 261 263 264 263 261 260 259 259 259 260 261 262 263 264 266 269 271 274 276 278 280 281 282 282 283 284 286 289 292 295 297 295 293 293 294 296 298 299 301 303 304 307 309 310 310 309 308 309 310 311 312 313 315 316 317 318 319 319 319 319 320 322 325 327 329 330 332 335 337 339 339 340 341 342 344 346 345 344 342 340 340
264 265 266 267 269 270 269 267 264 262 261 260 260 261 262 263 264 267 269 272 274 275 277 278 279 280 281 282 284 287 289 291 292 293 292 289 289 292 294 295 297 299 300 302 303 305 306 306 305 306 307 308 310 310 312 313 315 316 317 317 318 318 317 318 320 323 325 327 329 331 333 335 337 339 340 341 342 343 345 346 347 346 345 342 340
270 270 270 270 270 268 266 264 263 263 263 262 261 262 264 265 267 270 273 274 274 273 273 273 273 275 278 280 283 287 289 288 288 288 288 290 292 294 294 295 297 299 300 300 301 302 302 303 304 305 307 309 310 311 312 314 315 316 316 317 317 317 317 319 322 324 326 328 330 332 333 335 337 338 340 341 343 344 345 346 347 346 346 344 341
270 272 272 267 264 262 261 261 263 264 263 262 262 264 266 267 269 273 275 276 274 272 271 271 272 274 277 280 283 287 289 290 290 290 291 293 294 294 294 296 297 298 298 299 299 300 300 302 304 306 308 309 310 311 313 314 315 316 317 317 317 316 318 320 323 325 327 329 331 332 333 335 336 338 339 341 343 345 346 347 347 347 346 345 343
270 270 265 261 261 261 261 263 266 265 263 262 264 266 267 267 268 271 272 272 271 272 273 274 276 279 280 282 284 286 287 288 289 289 290 290 291 292 293 295 295 296 297 297 297 299 301 304 306 307 309 310 310 311 313 313 315 316 316 316 316 316 318 321 323 325 326 329 331 332 333 334 335 337 339 341 343 345 346 347 348 348 346 344 342
264 260 255 255 257 257 256 258 261 263 263 263 264 265 266 266 264 264 265 267 269 272 273 275 278 280 281 280 280 280 282 283 284 285 286 286 287 289 291 292 293 294 294 296 298 300 303 305 306 308 309 310 311 312 313 314 315 316 316 315 315 317 319 321 323 324 326 328 330 331 332 333 335 337 339 342 343 345 346 347 347 347 347 345 342
260 256 254 256 257 255 254 255 256 258 259 260 262 264 266 267 265 262 263 266 269 270 271 272 274 276 278 279 279 279 279 281 282 283 283 283 284 285 287 288 290 292 294 297 299 301 303 305 307 309 309 310 311 312 313 314 315 315 315 315 316 318 320 322 322 323 325 327 329 331 332 333 335 338 340 343 344 345 345 345 345 346 346 346 344
261 259 260 262 262 261 260 258 257 257 257 257 259 261 263 265 266 267 266 267 269 270 270 272 274 277 279 281 281 281 281 281 282 282 282 282 283 284 285 287 290 292 295 297 300 302 304 306 308 308 309 309 311 312 314 315 315 314 315 316 317 318 320 321 321 321 323 325 328 330 332 333 335 338 341 343 344 345 344 344 344 345 345 345 345
262 262 263 265 266 266 265 262 260 259 259 259 259 260 261 262 264 267 267 267 270 273 274 276 278 281 282 283 283 284 285 285 284 284 284 285 285 285 287 289 291 294 296 298 300 303 305 307 308 308 308 309 311 313 314 314 314 315 317 319 318 319 320 320 320 320 322 324 327 329 331 333 335 337 340 342 344 344 344 344 344 344 344 344 344
262 263 263 263 264 265 265 265 263 261 261 261 260 260 261 262 263 265 266 268 271 274 276 278 280 281 282 283 285 287 287 287 287 287 287 287 288 288 290 292 293 295 297 299 302 304 306 307 308 307 308 310 311 313 313 312 315 319 322 322 321 321 321 320 319 320 322 324 327 329 331 332 334 336 339 341 343 344 344 344 344 343 343 343 342
261 261 261 261 261 261 262 263 263 263 262 262 263 263 264 263 264 265 268 270 272 275 276 278 280 281 282 284 287 288 288 288 288 288 289 289 290 290 292 293 294 296 298 300 303 305 306 307 307 307 308 310 311 311 311 313 318 324 324 323 322 321 320 320 320 322 323 325 327 329 331 332 333 335 338 340 342 343 344 344 344 343 343 342 341
260 260 261 262 262 261 260 260 260 260 261 262 263 265 265 265 266 267 269 271 272 274 276 278 279 280 282 285 287 288 288 288 288 289 289 290 291 291 292 294 295 297 299 301 303 305 306 306 306 307 308 309 310 311 311 315 322 325 324 322 322 322 321 321 322 323 325 326 328 330 331 331 333 334 337 339 340 341 342 343 343 343 342 341 340
263 263 263 263 262 261 260 260 260 260 260 261 262 263 264 265 266 267 268 269 271 274 276 278 279 280 282 285 287 287 287 288 289 289 290 291 291 292 293 294 296 298 300 301 303 305 305 305 305 306 307 309 310 310 312 317 322 323 323 322 323 323 323 324 324 325 327 328 329 329 330 331 332 334 336 338 339 340 340 341 341 341 341 340 339
267 267 267 267 265 263 263 263 263 263 263 263 263 263 264 264 265 266 267 269 272 274 276 277 278 280 282 284 285 285 286 288 289 290 291 291 292 292 294 295 296 298 300 301 304 305 304 304 304 305 306 309 310 310 313 318 321 322 322 323 324 325 326 326 327 327 328 328 328 328 330 331 332 334 336 338 338 339 339 339 340 339 339 338 337
269 271 271 271 270 270 269 268 267 266 267 266 266 265 265 265 265 266 268 269 271 273 274 276 277 279 281 282 283 285 287 288 289 290 291 292 292 293 294 295 296 298 300 302 304 304 303 303 304 305 306 309 310 311 314 317 319 320 322 323 325 326 327 328 328 328 327 327 327 328 329 331 332 333 335 336 338 338 338 338 338 338 337 336 335
271 273 274 275 274 274 273 272 271 270 270 270 270 270 269 268 268 268 269 270 271 272 274 276 277 279 280 281 283 284 286 287 289 290 291 292 292 293 294 295 296 298 300 302 303 303 302 303 303 305 308 310 312 313 315 317 318 319 321 322 324 326 327 328 328 328 327 327 327 328 329 330 331 332 334 335 336 337 337 336 337 336 336 335 334
272 274 275 275 275 274 273 272 272 272 273 273 273 273 273 272 272 271 271 271 272 273 274 275 276 278 279 281 282 284 285 287 289 290 291 291 291 292 293 294 296 298 301 303 303 302 302 303 304 307 310 312 313 314 315 316 317 319 320 321 323 324 325 326 327 327 327 326 327 327 328 329 330 331 333 334 335 336 335 335 335 335 334 333 332
272 275 276 276 275 273 272 271 271 271 271 272 272 273 273 273 273 273 273 273 273 273 274 275 276 278 280 280 281 283 285 287 288 289 290 290 291 292 293 294 296 299 302 303 303 302 303 305 307 310 311 311 311 313 315 316 317 318 319 320 321 322 323 324 325 326 326 326 326 326 327 328 329 330 332 333 334 334 334 334 334 334 333 332 331
273 275 277 276 274 272 270 269 269 269 269 270 271 272 272 272 271 271 272 272 272 273 274 276 277 278 279 280 281 283 285 286 287 288 288 289 290 291 293 294 296 299 302 304 304 305 306 307 309 310 310 309 310 313 315 315 315 316 317 318 320 320 320 321 322 323 324 325 325 325 326 326 328 329 330 331 332 333 332 332 332 332 332 330 329
274 275 276 276 274 271 269 269 269 269 270 271 271 272 272 271 270 270 270 270 271 272 274 275 276 277 278 279 280 282 283 285 286 287 287 289 290 291 292 295 297 300 302 304 306 306 307 307 307 308 307 307 309 311 312 312 312 314 315 317 317 318 318 318 320 321 322 323 324 324 324 325 326 327 329 330 331 331 331 331 331 331 330 329 327
275 275 275 274 272 270 270 270 270 270 271 271 272 272 272 270 269 268 268 269 270 271 272 274 275 276 277 279 280 281 283 284 285 286 287 289 291 292 294 297 299 299 301 304 305 305 304 304 304 304 303 303 306 307 308 308 310 311 313 314 315 315 315 316 318 320 321 321 322 323 323 324 325 326 328 329 329 330 329 329 329 329 328 327 326
275 275 274 272 271 270 270 270 270 271 272 272 272 272 271 269 268 267 267 267 268 269 270 272 273 274 276 278 280 282 282 283 284 286 288 291 293 294 295 296 297 298 300 302 303 302 300 300 300 300 300 301 303 304 305 306 308 309 311 312 313 313 313 314 316 318 319 320 321 321 322 322 324 325 327 327 328 328 328 328 328 327 326 325 324
274 273 271 270 269 269 269 269 270 271 272 272 271 270 269 268 267 267 266 266 267 267 268 270 271 273 276 279 281 283 283 283 284 286 289 291 292 291 292 292 293 295 298 300 301 299 297 297 298 298 298 300 301 302 303 304 306 307 309 310 311 311 312 313 315 316 318 319 320 320 320 321 322 324 325 326 326 326 326 326 326 325 324 324 323
271 270 268 268 268 269 269 270 271 271 271 270 269 268 267 266 266 266 266 266 267 268 269 270 272 273 275 277 280 282 283 284 285 286 288 289 288 287 287 288 289 292 295 298 298 297 296 296 296 296 297 298 300 300 301 303 304 306 308 309 309 310 311 312 314 315 317 318 318 318 318 320 321 323 324 324 325 325 324 324 324 323 322 322 321
268 267 267 267 268 269 270 270 270 270 270 269 268 267 266 266 266 266 267 267 268 269 270 271 273 274 275 277 278 280 282 283 284 285 286 286 285 283 283 284 286 289 293 295 295 295 295 295 295 295 296 297 299 299 300 301 303 306 307 308 308 309 310 311 313 314 315 316 316 317 317 319 320 322 322 323 323 323 322 322 322 321 321 321 319
267 267 267 267 268 269 270 270 270 270 269 268 267 267 267 267 267 267 267 267 267 267 268 270 272 274 276 277 277 278 279 280 281 282 283 284 283 282 282 283 285 288 291 293 293 293 293 294 295 296 297 298 299 299 300 301 303 305 306 306 307 308 309 310 311 313 313 314 315 316 317 318 319 320 321 321 321 321 320 320 320 319 319 319 317
266 267 268 268 269 269 270 269 269 268 268 267 267 267 268 268 267 267 266 266 266 266 267 268 269 271 273 274 273 273 273 274 275 277 279 280 281 281 282 283 286 288 290 291 290 291 291 293 294 295 296 298 298 298 298 300 302 303 303 304 305 306 307 309 310 311 312 313 314 315 316 317 318 319 319 319 319 319 318 318 318 318 318 317 315
266 267 268 269 270 270 270 270 270 269 269 268 268 268 268 268 268 268 268 268 267 267 267 268 268 269 270 270 271 270 271 271 273 275 276 278 279 280 282 283 286 287 288 288 288 289 290 291 291 292 293 295 295 295 296 299 300 301 301 302 304 305 306 308 309 310 311 312 313 314 315 316 317 317 317 317 317 316 316 316 316 316 316 315 314
267 267 268 268 268 268 269 269 269 269 269 269 269 269 269 269 269 270 270 270 271 271 271 270 270 269 269 269 269 270 270 271 273 274 276 277 278 280 281 283 285 285 286 286 286 287 288 289 289 290 291 291 291 292 295 297 299 299 300 301 302 304 306 307 308 309 310 311 312 313 314 315 315 315 315 315 314 314 314 314 314 314 314 313 313
267 268 268 268 267 267 267 266 266 266 267 267 268 268 268 269 269 270 271 271 271 272 272 271 271 270 270 270 270 271 271 272 273 274 276 277 279 280 281 282 283 284 284 284 285 285 286 286 287 287 287 288 289 291 294 296 297 297 298 300 302 304 305 306 307 308 309 310 311 312 313 313 313 313 313 312 312 312 312 312 312 312 312 312 312
267 267 267 267 267 267 266 266 266 266 266 267 267 268 269 270 270 271 271 272 272 271 271 271 270 270 270 270 270 270 271 271 272 273 275 276 277 278 279 280 281 281 282 282 283 283 284 284 284 285 286 287 289 291 292 293 295 296 298 300 301 303 304 305 306 307 308 309 310 311 311 311 311 311 311 311 310 310 311 311 311 311 312 311 311
266 266 266 266 266 266 266 266 267 267 267 268 268 269 270 271 272 273 273 273 272 272 271 270 270 269 269 269 270 270 270 271 271 272 273 274 275 276 277 278 279 280 280 281 281 282 283 284 285 286 287 287 288 289 291 292 294 296 297 299 300 302 303 304 305 306 307 308 308 309 309 309 309 309 309 309 309 310 310 310 311 311 311 310 309
266 266 266 266 266 266 267 267 267 268 268 269 270 271 272 272 273 273 273 273 273 272 272 271 271 271 271 271 271 272 272 272 273 273 274 275 275 276 277 277 278 278 279 280 281 283 284 285 286 286 286 286 288 289 291 293 294 295 296 298 299 301 302 303 304 305 306 307 307 307 308 307 307 307 307 308 308 309 309 310 310 310 310 309 308
266 266 265 266 266 266 267 267 268 269 269 270 270 271 271 272 272 272 272 272 273 273 273 273 273 273 273 273 273 274 274 274 275 275 276 276 276 277 277 277 277 278 279 281 282 283 284 285 285 285 286 287 289 290 291 292 293 294 296 297 299 300 301 302 303 304 305 305 306 306 306 305 305 306 306 307 308 308 309 309 309 309 308 307 306
266 266 266 266 267 267 267 268 268 269 269 270 270 270 271 271 272 272 273 273 273 274 274 274 274 274 274 274 274 274 275 275 275 276 276 276 276 276 277 277 278 279 280 281 281 282 283 284 285 286 287 288 289 289 290 291 293 294 296 297 298 299 300 302 303 303 304 304 304 304 304 304 305 306 306 307 308 308 308 308 308 307 307 306 305
266 266 267 267 267 267 267 268 268 269 269 270 271 271 272 273 273 274 274 275 275 275 275 275 275 275 275 275 275 275 275 276 276 276 276 276 277 277 278 279 280 280 281 281 282 283 284 285 286 287 287 287 288 289 290 292 293 294 295 297 298 299 301 302 302 302 302 302 302 303 303 304 305 305 306 307 307 307 307 306 306 306 305 305 304
Height
10685 10687 10688 10688 10690 10692 10694 10696 10697 10698 10699 10699 10699 10700 10700 10700 10700 10700 10700 10700 10700 10700 10700 10699 10698 10697 10696 10695 10693 10692 10690 10689 10687 10686 10684 10682 10680 10678 10677 10675 10673 10670 10668 10665 10662 10659 10656 10653 10649 10646 10642 10638 10633 10629 10624 10619 10614 10608 10603 10597 10592 10586 10579 10572 10566 10559 10552 10546 10539 10533 10526 10518 10511 10502 10493 10486 10479 10472 10467 10462 10456 10449 10444 10441 10439
10682 10683 10684 10685 10687 10689 10690 10692 10693 10694 10695 10696 10696 10696 10696 10695 10696 10696 10696 10696 10696 10695 10695 10694 10693 10692 10691 10690 10689 10687 10685 10684 10682 10680 10679 10677 10675 10674 10672 10670 10668 10665 10663 10660 10657 10654 10651 10648 10644 10640 10636 10632 10628 10623 10619 10613 10608 10603 10597 10591 10585 10578 10571 10565 10558 10551 10544 10536 10528 10521 10515 10509 10502 10494 10485 10477 10469 10463 10457 10452 10445 10437 10433 10432 10431
10677 10679 10680 10681 10683 10685 10686 10688 10689 10690 10691 10692 10692 10691 10691 10691 10691 10692 10692 10692 10691 10691 10690 10689 10689 10687 10686 10685 10683 10682 10680 10679 10677 10676 10674 10672 10671 10669 10667 10665 10663 10660 10657 10655 10652 10649 10646 10642 10638 10635 10631 10627 10623 10618 10613 10608 10603 10597 10591 10585 10578 10571 10565 10559 10552 10544 10536 10528 10521 10514 10507 10500 10494 10486 10478 10468 10460 10453 10447 10442 10435 10426 10423 10424 10422
10673 10674 10676 10678 10680 10681 10683 10684 10685 10687 10687 10687 10687 10686 10686 10686 10687 10687 10687 10686 10686 10686 10685 10684 10684 10683 10681 10680 10679 10677 10675 10674 10673 10671 10669 10668 10666 10664 10662 10660 10657 10655 10652 10649 10647 10643 10640 10637 10633 10629 10625 10621 10617 10612 10607 10602 10597 10591 10585 10578 10571 10565 10559 10552 10545 10537 10529 10521 10513 10507 10499 10492 10486 10479 10471 10462 10453 10444 10436 10431 10426 10418 10414 10415 10413
10669 10670 10672 10674 10676 10677 10679 10681 10682 10683 10683 10683 10682 10681 10682 10682 10682 10682 10681 10681 10681 10681 10680 10680 10679 10678 10677 10675 10674 10672 10671 10669 10668 10666 10664 10662 10660 10658 10656 10654 10652 10649 10647 10644 10641 10638 10634 10631 10628 10624 10620 10616 10611 10606 10601 10596 10590 10584 10577 10571 10565 10559 10552 10545 10538 10530 10522 10513 10505 10498 10491 10485 10478 10471 10464 10456 10448 10438 10429 10421 10415 10410 10408 10407 10403
10665 10666 10668 10670 10671 10673 10675 10676 10677 10678 10678 10678 10677 10676 10676 10677 10677 10677 10677 10677 10676 10676 10676 10675 10674 10673 10672 10670 10669 10667 10666 10664 10663 10661 10659 10657 10655 10653 10650 10648 10646 10644 10641 10639 10636 10632 10629 10626 10622 10618 10614 10610 10605 10600 10595 10589 10583 10577 10571 10565 10559 10552 10545 10537 10530 10521 10514 10506 10498 10490 10483 10477 10472 10465 10458 10450 10444 10436 10427 10416 10406 10400 10399 10399 10396
10660 10662 10664 10665 10667 10668 10670 10671 10672 10673 10673 10673 10672 10671 10671 10671 10672 10672 10672 10672 10672 10671 10671 10669 10669 10668 10667 10665 10664 10662 10661 10659 10658 10656 10654 10651 10649 10646 10644 10642 10640 10638 10636 10633 10630 10627 10624 10620 10616 10612 10608 10603 10599 10594 10588 10582 10576 10571 10565 10559 10552 10546 10538 10530 10522 10514 10506 10498 10491 10484 10478 10471 10465 10460 10453 10445 10436 10429 10423 10415 10405 10396 10391 10391 10390
10656 10658 10659 10661 10662 10664 10665 10666 10667 10668 10668 10668 10667 10667 10666 10666 10667 10667 10667 10667 10666 10666 10665 10664 10663 10662 10662 10661 10659 10658 10656 10654 10652 10650 10648 10646 10643 10640 10638 10637 10635 10633 10631 10628 10625 10622 10618 10615 10610 10606 10602 10597 10593 10587 10581 10576 10570 10565 10559 10553 10546 10540 10533 10525 10516 10508 10500 10492 10485 10479 10472 10466 10460 10454 10448 10441 10432 10424 10418 10412 10405 10397 10388 10384 10383
10652 10654 10655 10656 10658 10659 10660 10662 10662 10663 10663 10663 10663 10662 10661 10661 10661 10661 10661 10661 10661 10660 10659 10659 10658 10657 10656 10655 10654 10652 10651 10649 10647 10645 10643 10640 10637 10635 10633 10632 10630 10627 10625 10622 10620 10616 10613 10609 10605 10600 10596 10591 10586 10581 10575 10570 10565 10559 10553 10547 10541 10534 10527 10519 10511 10503 10495 10488 10481 10474 10468 10462 10456 10450 10444 10439 10432 10423 10415 10408 10401 10394 10387 10380 10376
10648 10649 10650 10652 10653 10654 10656 10656 10657 10658 10658 10658 10658 10657 10657 10656 10656 10656 10655 10655 10655 10654 10654 10653 10652 10651 10651 10650 10648 10647 10645 10644 10642 10640 10637 10634 10631 10630 10628 10626 10624 10622 10619 10617 10614 10610 10606 10602 10598 10594 10590 10585 10579 10574 10569 10564 10559 10554 10548 10542 10535 10529 10522 10515 10507 10500 10492 10485 10478 10471 10464 10458 10452 10446 10440 10434 10427 10419 10411 10404 10398 10393 10386 10378 10372
10643 10645 10646 10647 10648 10649 10650 10651 10652 10653 10653 10653 10653 10652 10651 10651 10651 10650 10650 10650 10649 10649 10648 10648 10647 10646 10645 10644 10643 10641 10640 10639 10637 10634 10631 10628 10627 10625 10623 10621 10619 10616 10614 10611 10607 10603 10600 10596 10592 10588 10583 10578 10573 10568 10563 10559 10554 10548 10542 10536 10530 10523 10517 10510 10504 10497 10490 10483 10476 10468 10461 10454 10447 10442 10435 10428 10421 10415 10407 10401 10396 10392 10386 10379 10372
10639 10640 10641 10642 10643 10644 10645 10646 10647 10647 10648 10648 10647 10647 10646 10646 10645 10645 10644 10644 10644 10643 10643 10642 10641 10640 10639 10638 10637 10636 10635 10633 10631 10629 10626 10624 10622 10620 10617 10615 10612 10609 10606 10603 10600 10596 10593 10589 10586 10582 10577 10572 10568 10564 10559 10554 10549 10543 10538 10532 10525 10519 10512 10506 10501 10495 10489 10482 10475 10467 10459 10451 10443 10437 10431 10425 10418 10411 10404 10397 10391 10388 10384 10379 10373
10635 10636 10637 10638 10638 10639 10640 10641 10642 10643 10643 10643 10642 10641 10641 10640 10640 10639 10639 10638 10638 10637 10637 10636 10636 10635 10634 10633 10632 10631 10629 10628 10626 10624 10621 10619 10617 10614 10611 10608 10605 10602 10599 10597 10594 10590 10587 10584 10580 10576 10571 10567 10564 10560 10555 10550 10544 10539 10534 10528 10521 10515 10509 10503 10497 10492 10486 10480 10473 10466 10458 10450 10441 10433 10426 10421 10415 10408 10401 10394 10387 10382 10380 10377 10372
10631 10631 10632 10633 10634 10635 10636 10637 10638 10638 10638 10638 10637 10636 10635 10635 10634 10634 10633 10633 10632 10632 10632 10632 10631 10630 10629 10628 10626 10625 10624 10622 10620 10619 10617 10614 10611 10608 10605 10602 10599 10597 10594 10591 10588 10585 10581 10578 10574 10570 10566 10563 10559 10554 10549 10545 10540 10535 10529 10523 10517 10512 10506 10499 10493 10488 10482 10476 10470 10464 10457 10449 10441 10432 10423 10416 10411 10406 10399 10392 10385 10379 10374 10371 10367
10627 10627 10628 10629 10630 10631 10632 10633 10633 10633 10632 10632 10631 10630 10630 10629 10629 10628 10628 10627 10627 10627 10627 10627 10626 10625 10623 10622 10621 10620 10618 10617 10616 10614 10611 10608 10605 10602 10600 10598 10595 10592 10589 10586 10582 10579 10575 10572 10569 10565 10562 10558 10553 10548 10544 10539 10535 10530 10524 10518 10513 10507 10501 10495 10489 10483 10478 10472 10467 10461 10455 10448 10440 10432 10422 10414 10407 10402 10396 10390 10382 10375 10368 10364 10360
10622 10623 10624 10625 10626 10627 10627 10628 10628 10627 10627 10626 10626 10625 10625 10624 10623 10623 10623 10622 10622 10622 10622 10622 10621 10620 10618 10616 10615 10614 10613 10611 10609 10607 10605 10603 10600 10597 10595 10592 10590 10587 10584 10580 10577 10574 10571 10567 10564 10561 10557 10552 10547 10543 10538 10534 10529 10524 10519 10513 10508 10502 10497 10491 10486 10480 10475 10469 10463 10457 10451 10444 10438 10431 10423 10413 10405 10398 10392 10387 10380 10373 10365 10360 10356
10618 10620 10620 10621 10622 10622 10623 10623 10623 10622 10622 10622 10621 10620 10619 10619 10618 10618 10618 10618 10618 10617 10617 10617 10617 10615 10613 10611 10609 10608 10607 10605 10603 10602 10601 10598 10595 10592 10590 10587 10585 10582 10579 10575 10572 10569 10566 10563 10560 10555 10551 10546 10542 10537 10532 10528 10523 10518 10513 10508 10503 10497 10492 10487 10482 10476 10471 10465 10458 10452 10446 10439 10434 10428 10422 10414 10405 10397 10389 10384 10379 10374 10368 10361 10354
10615 10616 10617 10617 10617 10618 10618 10618 10618 10618 10618 10617 10616 10615 10614 10614 10614 10614 10614 10613 10613 10613 10613 10613 10612 10610 10608 10606 10605 10603 10602 10601 10599 10597 10595 10592 10589 10587 10585 10582 10580 10577 10573 10570 10568 10565 10562 10558 10554 10549 10545 10540 10535 10531 10526 10522 10517 10512 10507 10502 10496 10491 10486 10480 10475 10470 10464 10458 10452 10446 10440 10435 10429 10424 10419 10413 10406 10397 10389 10382 10376 10372 10368 10363 10356
10612 10612 10612 10611 10612 10612 10613 10614 10614 10614 10613 10612 10611 10610 10610 10610 10610 10610 10610 10609 10609 10608 10607 10607 10606 10605 10603 10602 10600 10598 10597 10595 10593 10591 10589 10586 10584 10582 10580 10577 10574 10571 10568 10565 10562 10559 10556 10552 10548 10543 10539 10534 10529 10525 10521 10516 10512 10507 10501 10496 10490 10485 10480 10475 10470 10464 10459 10453 10448 10442 10436 10431 10426 10421 10416 10411 10404 10398 10390 10383 10375 10369 10365 10362 10358
10609 10610 10608 10606 10607 10608 10609 10610 10610 10609 10609 10607 10606 10606 10607 10607 10607 10607 10606 10605 10604 10603 10602 10601 10600 10600 10599 10597 10595 10594 10592 10590 10588 10586 10584 10581 10579 10577 10575 10572 10569 10566 10563 10560 10557 10553 10550 10546 10542 10537 10533 10528 10523 10519 10515 10511 10506 10501 10496 10491 10486 10481 10476 10471 10466 10461 10456 10450 10444 10439 10434 10429 10424 10418 10413 10407 10401 10396 10390 10383 10377 10370 10364 10359 10355
10606 10607 10604 10601 10603 10605 10605 10605 10606 10605 10605 10604 10602 10602 10603 10603 10604 10603 10601 10599 10599 10598 10597 10597 10596 10595 10594 10593 10591 10590 10588 10586 10584 10582 10579 10577 10574 10572 10570 10567 10564 10561 10557 10554 10551 10547 10544 10540 10536 10531 10526 10522 10518 10514 10510 10505 10500 10496 10491 10486 10481 10476 10472 10467 10463 10458 10453 10448 10442 10436 10431 10425 10420 10414 10409 10403 10398 10392 10388 10383 10378 10372 10367 10360 10355
10601 10602 10599 10597 10599 10600 10600 10600 10600 10600 10600 10599 10597 10597 10598 10599 10600 10599 10596 10594 10594 10594 10593 10592 10591 10590 10589 10588 10586 10584 10582 10581 10579 10576 10574 10572 10569 10567 10564 10561 10558 10555 10552 10548 10545 10541 10538 10534 10529 10525 10520 10516 10512 10508 10504 10499 10495 10490 10486 10481 10476 10472 10467 10463 10459 10455 10450 10445 10440 10434 10428 10422 10416 10410 10405 10399 10394 10389 10385 10381 10377 10372 10367 10362 10356
10594 10595 10594 10593 10594 10595 10595 10595 10595 10595 10595 10594 10593 10592 10593 10594 10594 10594 10592 10590 10589 10589 10588 10587 10586 10585 10583 10582 10580 10578 10576 10574 10573 10570 10568 10566 10563 10561 10558 10555 10552 10549 10546 10542 10539 10536 10532 10528 10523 10519 10515 10511 10507 10503 10499 10494 10489 10485 10481 10476 10471 10467 10463 10459 10455 10451 10446 10442 10437 10431 10426 10420 10414 10408 10402 10397 10392 10387 10382 10378 10373 10370 10365 10360 10356
10587 10588 10589 10589 10589 10589 10589 10589 10589 10589 10589 10588 10587 10586 10587 10588 10589 10588 10587 10585 10584 10583 10582 10581 10580 10578 10577 10575 10574 10572 10570 10568 10566 10564 10562 10559 10557 10554 10552 10549 10546 10543 10540 10536 10533 10530 10526 10521 10517 10513 10509 10505 10502 10498 10493 10489 10484 10480 10476 10471 10467 10463 10459 10455 10451 10447 10442 10437 10433 10428 10423 10418 10413 10407 10401 10395 10390 10384 10379 10374 10369 10365 10361 10357 10354
10583 10584 10584 10585 10585 10585 10584 10584 10584 10583 10582 10582 10581 10580 10581 10583 10583 10582 10581 10580 10579 10578 10576 10575 10574 10572 10571 10569 10567 10566 10564 10562 10560 10558 10555 10553 10550 10548 10545 10543 10540 10537 10534 10530 10527 10523 10519 10515 10511 10507 10504 10500 10496 10492 10488 10484 10479 10475 10471 10466 10462 10458 10454 10451 10447 10442 10438 10433 10428 10423 10418 10414 10409 10404 10399 10394 10388 10382 10377 10371 10366 10360 10356 10352 10349
10578 10579 10579 10579 10579 10579 10579 10578 10578 10577 10576 10576 10575 10575 10575 10576 10576 10575 10575 10574 10573 10572 10570 10569 10567 10566 10564 10563 10561 10559 10557 10555 10553 10551 10549 10546 10544 10541 10539 10536 10533 10530 10527 10524 10520 10517 10513 10509 10505 10502 10498 10495 10491 10487 10483 10479 10475 10470 10466 10462 10458 10454 10450 10446 10442 10438 10433 10429 10424 10419 10414 10409 10405 10401 10396 10391 10386 10381 10375 10369 10364 10359 10354 10349 10345
10573 10574 10574 10574 10573 10573 10572 10572 10571 10571 10570 10569 10569 10569 10569 10569 10570 10569 10568 10567 10566 10565 10563 10562 10561 10560 10558 10556 10554 10552 10550 10548 10546 10544 10542 10540 10538 10535 10532 10529 10526 10523 10520 10517 10514 10510 10507 10503 10500 10496 10493 10489 10485 10481 10478 10474 10470 10466 10462 10458 10454 10449 10445 10441 10437 10433 10428 10424 10419 10414 10409 10404 10400 10396 10392 10387 10383 10378 10373 10368 10363 10358 10353 10348 10343
10568 10568 10568 10568 10567 10566 10566 10565 10565 10564 10564 10564 10563 10563 10562 10563 10563 10562 10561 10560 10559 10558 10557 10556 10554 10553 10551 10549 10547 10546 10544 10542 10540 10538 10536 10534 10531 10529 10526 10523 10520 10517 10514 10511 10508 10504 10501 10497 10494 10491 10488 10484 10480 10476 10472 10468 10465 10461 10458 10454 10449 10445 10440 10436 10432 10427 10423 10419 10415 10410 10405 10400 10395 10391 10387 10382 10378 10374 10369 10364 10359 10355 10351 10347 10342
10562 10562 10561 10561 10561 10560 10560 10559 10558 10558 10558 10557 10557 10556 10555 10555 10555 10555 10554 10553 10552 10551 10550 10548 10547 10546 10544 10542 10541 10539 10537 10535 10533 10531 10529 10527 10525 10522 10519 10516 10513 10510 10507 10504 10501 10498 10494 10491 10488 10485 10482 10478 10475 10471 10467 10463 10459 10456 10453 10449 10444 10440 10435 10431 10427 10422 10418 10414 10410 10406 10401 10396 10391 10386 10382 10377 10373 10368 10364 10360 10356 10352 10348 10344 10340
10555 10555 10555 10555 10555 10554 10554 10553 10552 10552 10551 10550 10549 10549 10549 10548 10548 10548 10547 10546 10545 10545 10543 10541 10540 10538 10537 10535 10534 10532 10530 10528 10526 10525 10523 10520 10518 10515 10512 10510 10507 10504 10501 10498 10495 10492 10488 10485 10482 10479 10476 10472 10469 10465 10461 10457 10454 10450 10447 10442 10439 10434 10430 10426 10422 10418 10414 10410 10405 10401 10396 10392 10387 10382 10378 10373 10368 10363 10359 10355 10351 10347 10344 10340 10336
10549 10549 10548 10548 10548 10548 10547 10546 10545 10544 10543 10543 10542 10541 10541 10541 10541 10540 10540 10539 10538 10537 10535 10533 10532 10531 10530 10529 10527 10525 10524 10522 10520 10518 10516 10514 10511 10508 10506 10503 10501 10498 10495 10492 10489 10485 10482 10479 10476 10473 10469 10466 10463 10459 10455 10451 10448 10444 10441 10436 10433 10429 10425 10421 10417 10413 10409 10405 10400 10395 10391 10387 10383 10379 10374 10369 10364 10359 10354 10349 10344 10341 10337 10334 10330
10542 10542 10542 10542 10542 10541 10539 10538 10538 10537 10536 10535 10535 10534 10534 10533 10533 10532 10532 10532 10531 10530 10528 10526 10524 10523 10523 10522 10520 10519 10517 10515 10513 10511 10509 10507 10504 10502 10499 10497 10495 10492 10489 10486 10482 10479 10476 10473 10470 10466 10463 10459 10456 10453 10450 10446 10442 10438 10434 10431 10427 10423 10420 10416 10412 10408 10404 10400 10396 10391 10386 10382 10378 10374 10369 10365 10360 10355 10350 10344 10339 10335 10331 10327 10324
10535 10534 10534 10534 10535 10533 10531 10530 10530 10529 10528 10527 10527 10526 10526 10525 10525 10524 10525 10524 10523 10522 10521 10518 10517 10517 10516 10514 10513 10512 10510 10508 10506 10504 10502 10500 10498 10495 10493 10491 10488 10486 10483 10479 10476 10473 10469 10466 10463 10459 10456 10453 10450 10447 10444 10440 10436 10432 10428 10424 10421 10418 10414 10410 10406 10403 10399 10396 10391 10386 10381 10377 10373 10368 10364 10360 10356 10351 10346 10341 10336 10331 10326 10321 10317
10527 10527 10526 10526 10526 10526 10523 10522 10522 10521 10519 10519 10519 10519 10518 10517 10517 10517 10517 10516 10515 10515 10513 10512 10510 10509 10508 10507 10506 10504 10503 10501 10499 10497 10496 10494 10491 10489 10486 10484 10482 10479 10476 10473 10470 10466 10463 10459 10456 10452 10449 10446 10443 10440 10437 10433 10429 10426 10422 10418 10415 10411 10408 10404 10401 10397 10393 10390 10386 10381 10376 10372 10368 10364 10360 10355 10351 10346 10341 10336 10331 10327 10322 10317 10312
10519 10519 10518 10517 10517 10517 10515 10514 10514 10513 10512 10511 10510 10511 10511 10510 10509 10509 10510 10509 10508 10507 10507 10505 10503 10501 10500 10499 10498 10497 10496 10494 10493 10490 10488 10486 10484 10482 10479 10477 10475 10472 10469 10466 10463 10460 10456 10453 10450 10446 10443 10439 10436 10434 10431 10427 10424 10420 10417 10413 10409 10405 10402 10398 10395 10391 10387 10384 10380 10375 10371 10367 10363 10359 10355 10350 10346 10341 10336 10331 10326 10322 10318 10313 10308
10510 10511 10510 10509 10508 10508 10507 10506 10505 10504 10504 10503 10502 10503 10503 10503 10502 10501 10502 10502 10502 10500 10499 10498 10496 10494 10492 10490 10490 10490 10489 10487 10486 10483 10481 10479 10477 10475 10472 10470 10468 10465 10462 10460 10457 10454 10450 10447 10444 10441 10438 10434 10431 10428 10425 10421 10418 10414 10411 10407 10403 10399 10396 10392 10389 10385 10381 10377 10373 10368 10364 10360 10357 10353 10349 10345 10340 10336 10332 10327 10322 10318 10313 10308 10303
10501 10502 10501 10500 10499 10499 10499 10498 10497 10496 10496 10495 10494 10494 10495 10495 10495 10494 10494 10495 10495 10493 10492 10491 10490 10487 10485 10483 10482 10482 10482 10480 10478 10476 10474 10472 10470 10468 10465 10463 10460 10458 10455 10453 10451 10448 10444 10441 10438 10435 10432 10429 10426 10422 10419 10415 10412 10408 10405 10401 10397 10393 10389 10386 10382 10379 10374 10370 10366 10361 10356 10353 10350 10347 10343 10338 10334 10329 10325 10321 10317 10313 10309 10304 10299
10492 10493 10492 10491 10490 10490 10490 10490 10489 10489 10488 10487 10486 10486 10487 10487 10487 10487 10487 10487 10487 10486 10485 10484 10482 10480 10478 10476 10474 10474 10473 10473 10471 10469 10466 10465 10464 10462 10459 10457 10454 10451 10449 10448 10445 10441 10437 10434 10431 10428 10425 10422 10419 10416 10412 10409 10405 10402 10399 10395 10391 10387 10383 10379 10375 10372 10368 10363 10359 10354 10350 10346 10343 10339 10336 10332 10327 10323 10318 10314 10311 10307 10303 10299 10294
10483 10484 10484 10483 10482 10482 10482 10482 10481 10481 10480 10479 10478 10478 10479 10479 10479 10479 10479 10479 10479 10478 10477 10476 10475 10474 10472 10470 10468 10466 10465 10464 10464 10462 10460 10458 10457 10456 10453 10450 10447 10444 10443 10442 10439 10435 10430 10427 10424 10421 10418 10415 10412 10409 10405 10402 10399 10395 10392 10388 10384 10379 10376 10372 10368 10364 10360 10356 10352 10348 10343 10339 10335 10332 10328 10324 10320 10316 10312 10308 10304 10301 10297 10293 10289
10474 10475 10476 10475 10474 10474 10474 10474 10473 10473 10472 10472 10471 10471 10471 10471 10472 10471 10471 10471 10471 10471 10470 10469 10467 10466 10465 10464 10462 10460 10458 10456 10456 10455 10454 10452 10451 10449 10447 10444 10441 10438 10437 10435 10433 10428 10424 10420 10417 10414 10411 10408 10405 10402 10398 10395 10391 10388 10384 10380 10376 10372 10368 10364 10361 10357 10353 10349 10345 10341 10337 10333 10328 10324 10320 10315 10311 10308 10304 10301 10297 10294 10290 10286 10283
10466 10467 10467 10467 10467 10466 10466 10466 10465 10465 10464 10464 10464 10463 10463 10464 10464 10463 10463 10462 10463 10463 10462 10461 10459 10458 10456 10455 10454 10453 10451 10449 10448 10447 10447 10446 10444 10442 10439 10437 10434 10432 10430 10429 10426 10423 10418 10414 10409 10406 10403 10400 10398 10394 10390 10387 10384 10380 10376 10372 10368 10365 10361 10357 10353 10349 10345 10341 10338 10334 10329 10325 10321 10317 10312 10308 10304 10300 10296 10293 10290 10286 10283 10280 10277
10459 10459 10459 10459 10459 10458 10458 10457 10457 10457 10456 10456 10456 10456 10455 10455 10455 10454 10454 10454 10454 10454 10454 10453 10452 10451 10450 10448 10447 10446 10445 10443 10441 10440 10439 10438 10437 10434 10432 10429 10427 10426 10424 10422 10419 10416 10412 10408 10404 10399 10395 10393 10390 10386 10382 10379 10377 10373 10369 10365 10361 10357 10353 10350 10346 10341 10337 10332 10329 10326 10322 10317 10313 10309 10305 10300 10296 10292 10289 10285 10282 10279 10275 10272 10269
10451 10451 10451 10451 10450 10450 10449 10449 10449 10449 10448 10449 10449 10448 10447 10447 10446 10446 10446 10446 10446 10446 10446 10445 10445 10444 10443 10441 10440 10439 10438 10436 10434 10432 10431 10430 10428 10426 10424 10422 10420 10418 10416 10414 10412 10409 10405 10402 10398 10394 10390 10387 10382 10377 10374 10372 10369 10365 10361 10357 10353 10349 10345 10341 10337 10333 10328 10324 10320 10317 10313 10309 10305 10300 10296 10293 10288 10284 10281 10277 10274 10271 10267 10264 10262
10442 10443 10443 10443 10442 10442 10441 10441 10441 10441 10440 10440 10440 10440 10439 10439 10439 10438 10437 10437 10437 10437 10436 10436 10436 10435 10434 10433 10432 10430 10429 10427 10426 10424 10423 10421 10419 10418 10416 10414 10412 10409 10407 10405 10403 10400 10397 10394 10391 10387 10384 10379 10374 10370 10367 10365 10361 10357 10353 10349 10345 10341 10337 10333 10329 10325 10320 10316 10312 10308 10304 10300 10296 10292 10288 10284 10281 10277 10273 10270 10266 10263 10260 10256 10254
10434 10434 10434 10434 10434 10434 10434 10433 10433 10433 10433 10432 10432 10432 10431 10431 10430 10430 10429 10429 10428 10427 10427 10427 10426 10426 10425 10424 10422 10421 10420 10419 10418 10416 10414 10412 10411 10409 10407 10405 10403 10400 10398 10396 10394 10391 10389 10385 10382 10378 10375 10371 10366 10363 10360 10357 10353 10349 10345 10341 10337 10333 10329 10324 10320 10316 10312 10308 10304 10299 10294 10290 10286 10283 10279 10275 10271 10268 10265 10262 10258 10255 10252 10249 10246
10426 10426 10425 10425 10425 10425 10425 10425 10425 10425 10425 10424 10423 10423 10423 10423 10422 10421 10420 10420 10419 10418 10418 10418 10417 10416 10415 10414 10413 10412 10411 10410 10409 10408 10406 10404 10402 10400 10398 10396 10393 10391 10389 10387 10385 10382 10379 10376 10372 10369 10366 10362 10359 10356 10352 10348 10344 10340 10336 10332 10328 10324 10320 10316 10312 10308 10304 10299 10295 10290 10286 10281 10277 10273 10269 10265 10261 10258 10255 10252 10249 10246 10243 10240 10238
10418 10417 10417 10417 10417 10417 10417 10416 10416 10416 10416 10415 10415 10415 10414 10414 10413 10412 10411 10410 10410 10409 10409 10408 10408 10407 10406 10404 10404 10403 10402 10401 10399 10398 10396 10395 10393 10391 10389 10387 10384 10382 10380 10377 10375 10372 10369 10366 10363 10360 10357 10354 10350 10347 10343 10340 10336 10332 10328 10323 10319 10315 10311 10307 10303 10299 10295 10290 10286 10281 10277 10273 10268 10263 10259 10255 10251 10248 10244 10241 10238 10235 10233 10230 10228
10410 10410 10409 10409 10409 10409 10408 10408 10408 10408 10407 10407 10406 10406 10405 10405 10404 10403 10402 10401 10400 10400 10399 10399 10398 10397 10396 10395 10394 10393 10392 10391 10389 10388 10387 10385 10384 10382 10380 10378 10375 10372 10370 10367 10364 10362 10359 10357 10354 10351 10348 10344 10341 10337 10334 10331 10327 10323 10319 10314 10310 10306 10302 10298 10294 10289 10285 10280 10276 10272 10267 10263 10258 10254 10250 10246 10242 10238 10234 10231 10228 10225 10222 10220 10218
10402 10402 10401 10401 10401 10401 10400 10400 10399 10399 10399 10398 10398 10397 10396 10396 10395 10394 10393 10393 10392 10391 10390 10390 10389 10388 10387 10386 10385 10384 10382 10381 10380 10379 10378 10376 10374 10372 10370 10368 10365 10362 10360 10358 10355 10353 10350 10347 10344 10341 10338 10335 10332 10328 10325 10321 10317 10314 10310 10305 10302 10297 10293 10288 10284 10279 10274 10270 10266 10261 10257 10252 10248 10244 10240 10236 10232 10228 10224 10221 10218 10215 10212 10209 10207
10394 10394 10394 10393 10393 10393 10392 10392 10391 10391 10391 10390 10389 10389 10388 10387 10387 10386 10385 10384 10383 10382 10381 10381 10380 10379 10378 10376 10375 10374 10372 10371 10370 10369 10368 10366 10364 10362 10359 10357 10355 10353 10351 10349 10346 10343 10340 10337 10334 10331 10329 10326 10322 10319 10315 10312 10308 10304 10301 10297 10293 10288 10283 10278 10273 10268 10264 10259 10255 10251 10246 10242 10238 10234 10229 10225 10221 10218 10214 10211 10208 10205 10202 10199 10196
10386 10386 10386 10386 10386 10385 10385 10385 10384 10384 10383 10383 10382 10381 10380 10379 10378 10377 10376 10375 10374 10373 10372 10371 10370 10369 10368 10366 10365 10364 10362 10361 10360 10358 10357 10355 10353 10351 10349 10347 10345 10343 10340 10338 10335 10332 10330 10327 10325 10322 10319 10316 10312 10309 10306 10302 10299 10296 10292 10287 10283 10278 10273 10268 10263 10258 10254 10249 10244 10240 10235 10231 10227 10223 10219 10215 10211 10207 10204 10201 10198 10194 10191 10188 10185